• In Uzbekistan
  • List of Countries
  • For 7 days
  • Water Temperature
  • Weather Map
  • Weather Widgets
  • user-avatar
    Login

    Hourly Weather Brasília

    Today, 8 December, Sunday

    Time Temperature Precipitation Wind Pressure Humidity
    00:00 +21°C° 0 mm 1 mps 664 mmHg 83%
    01:00 +21°C° 0 mm 1 mps 664 mmHg 83%
    02:00 +21°C° 0 mm 1 mps 663 mmHg 82%
    03:00 +21°C° 0 mm 1 mps 663 mmHg 82%
    04:00 +19°C° 0 mm 0 mps 664 mmHg 82%
    05:00 +19°C° 0 mm 0 mps 664 mmHg 82%
    06:00 +19°C° 0 mm 0 mps 664 mmHg 83%
    07:00 +21°C° 0 mm 0 mps 665 mmHg 78%
    08:00 +22°C° 0 mm 0 mps 665 mmHg 72%
    09:00 +26°C° 0 mm 1 mps 666 mmHg 65%
    10:00 +27°C° 0.2 mm 1 mps 666 mmHg 63%
    11:00 +28°C° 0.2 mm 1 mps 666 mmHg 61%
    12:00 +29°C° 0.2 mm 1 mps 665 mmHg 59%
    13:00 +29°C° 1.4 mm 1 mps 665 mmHg 61%
    14:00 +29°C° 1.4 mm 1 mps 664 mmHg 63%
    15:00 +29°C° 1.4 mm 1 mps 664 mmHg 65%
    16:00 +27°C° 2.8 mm 1 mps 663 mmHg 72%
    17:00 +25°C° 2.8 mm 2 mps 663 mmHg 79%
    18:00 +23°C° 2.8 mm 2 mps 663 mmHg 87%
    19:00 +23°C° 3.5 mm 2 mps 663 mmHg 89%
    20:00 +21°C° 3.5 mm 2 mps 664 mmHg 91%
    21:00 +21°C° 3.5 mm 2 mps 664 mmHg 94%
    22:00 +21°C° 6 mm 1 mps 664 mmHg 95%
    23:00 +21°C° 6 mm 1 mps 665 mmHg 96%

    Tomorrow, 9 December, Monday

    Time Temperature Precipitation Wind Pressure Humidity
    00:00 +21°C° 6 mm 1 mps 665 mmHg 96%
    01:00 +21°C° 5.4 mm 1 mps 664 mmHg 96%
    02:00 +21°C° 5.4 mm 1 mps 664 mmHg 96%
    03:00 +21°C° 5.4 mm 1 mps 664 mmHg 96%
    04:00 +21°C° 0.5 mm 1 mps 664 mmHg 96%
    05:00 +21°C° 0.5 mm 1 mps 664 mmHg 96%
    06:00 +21°C° 0.5 mm 1 mps 664 mmHg 95%
    07:00 +21°C° 0.2 mm 1 mps 665 mmHg 93%
    08:00 +21°C° 0.2 mm 1 mps 665 mmHg 92%
    09:00 +22°C° 0.2 mm 1 mps 666 mmHg 90%
    10:00 +23°C° 0.5 mm 1 mps 665 mmHg 86%
    11:00 +24°C° 0.5 mm 1 mps 665 mmHg 82%
    12:00 +25°C° 0.5 mm 1 mps 665 mmHg 79%
    13:00 +25°C° 0.7 mm 1 mps 665 mmHg 77%
    14:00 +26°C° 0.7 mm 1 mps 664 mmHg 75%
    15:00 +26°C° 0.7 mm 1 mps 664 mmHg 74%
    16:00 +26°C° 0.6 mm 1 mps 664 mmHg 76%
    17:00 +25°C° 0.6 mm 1 mps 663 mmHg 79%
    18:00 +24°C° 0.6 mm 1 mps 663 mmHg 82%
    19:00 +22°C° 0.9 mm 0 mps 664 mmHg 83%
    20:00 +21°C° 0.9 mm 0 mps 664 mmHg 84%
    21:00 +20°C° 0.9 mm 0 mps 664 mmHg 84%
    22:00 +20°C° 1.3 mm 0 mps 664 mmHg 85%
    23:00 +20°C° 1.3 mm 0 mps 665 mmHg 85%

    Day after tomorrow, 10 December, Tuesday

    Time Temperature Precipitation Wind Pressure Humidity
    00:00 +20°C° 1.3 mm 0 mps 665 mmHg 86%
    01:00 +20°C° 0.8 mm 0 mps 664 mmHg 86%
    02:00 +20°C° 0.8 mm 0 mps 664 mmHg 87%
    03:00 +19°C° 0.8 mm 0 mps 663 mmHg 87%
    04:00 +19°C° 0.3 mm 0 mps 663 mmHg 87%
    05:00 +21°C° 0.3 mm 1 mps 664 mmHg 87%
    06:00 +21°C° 0.3 mm 1 mps 664 mmHg 88%
    07:00 +22°C° 0.1 mm 1 mps 665 mmHg 83%
    08:00 +24°C° 0.1 mm 1 mps 665 mmHg 78%
    09:00 +25°C° 0.1 mm 2 mps 666 mmHg 73%
    10:00 +26°C° 0.3 mm 2 mps 666 mmHg 70%
    11:00 +27°C° 0.3 mm 3 mps 666 mmHg 67%
    12:00 +27°C° 0.3 mm 3 mps 666 mmHg 64%
    13:00 +27°C° 1 mm 3 mps 666 mmHg 67%
    14:00 +27°C° 1 mm 3 mps 665 mmHg 70%
    15:00 +27°C° 1 mm 3 mps 664 mmHg 72%
    16:00 +26°C° 1.2 mm 2 mps 664 mmHg 76%
    17:00 +25°C° 1.2 mm 2 mps 663 mmHg 80%
    18:00 +24°C° 1.2 mm 1 mps 663 mmHg 84%
    19:00 +23°C° 0.4 mm 1 mps 663 mmHg 84%
    20:00 +23°C° 0.4 mm 1 mps 664 mmHg 85%
    21:00 +22°C° 0.4 mm 1 mps 664 mmHg 86%
    22:00 +22°C° 0.1 mm 1 mps 664 mmHg 85%
    23:00 +22°C° 0.1 mm 1 mps 664 mmHg 84%

    11 December, Wednesday

    Time Temperature Precipitation Wind Pressure Humidity
    00:00 +22°C° 0.1 mm 1 mps 665 mmHg 84%
    01:00 +22°C° 0 mm 1 mps 664 mmHg 85%
    02:00 +22°C° 0 mm 1 mps 663 mmHg 85%
    03:00 +19°C° 0 mm 0 mps 663 mmHg 86%
    04:00 +19°C° 0.1 mm 0 mps 663 mmHg 86%
    05:00 +19°C° 0.1 mm 0 mps 663 mmHg 86%
    06:00 +19°C° 0.1 mm 0 mps 664 mmHg 86%
    07:00 +22°C° 0.1 mm 1 mps 664 mmHg 83%
    08:00 +24°C° 0.1 mm 1 mps 664 mmHg 79%
    09:00 +25°C° 0.1 mm 1 mps 665 mmHg 75%
    10:00 +26°C° 0.1 mm 2 mps 665 mmHg 70%
    11:00 +27°C° 0.1 mm 2 mps 665 mmHg 65%
    12:00 +28°C° 0.1 mm 2 mps 665 mmHg 61%
    13:00 +28°C° 0.9 mm 3 mps 664 mmHg 64%
    14:00 +27°C° 0.9 mm 3 mps 664 mmHg 68%
    15:00 +27°C° 0.9 mm 3 mps 663 mmHg 72%
    16:00 +26°C° 1.1 mm 2 mps 663 mmHg 75%
    17:00 +25°C° 1.1 mm 2 mps 662 mmHg 79%
    18:00 +24°C° 1.1 mm 2 mps 662 mmHg 82%
    19:00 +23°C° 0.3 mm 2 mps 663 mmHg 83%
    20:00 +23°C° 0.3 mm 1 mps 663 mmHg 84%
    21:00 +22°C° 0.3 mm 1 mps 663 mmHg 85%
    22:00 +22°C° 0.1 mm 1 mps 663 mmHg 85%
    23:00 +21°C° 0.1 mm 1 mps 663 mmHg 85%

    12 December, Thursday

    Time Temperature Precipitation Wind Pressure Humidity
    00:00 +21°C° 0.1 mm 1 mps 663 mmHg 85%
    01:00 +21°C° 0 mm 1 mps 663 mmHg 84%
    02:00 +22°C° 0 mm 1 mps 663 mmHg 83%
    03:00 +22°C° 0 mm 1 mps 663 mmHg 82%
    04:00 +21°C° 0 mm 1 mps 663 mmHg 83%
    05:00 +21°C° 0 mm 1 mps 663 mmHg 83%
    06:00 +21°C° 0 mm 1 mps 663 mmHg 84%
    07:00 +23°C° 0.2 mm 1 mps 664 mmHg 79%
    08:00 +24°C° 0.2 mm 2 mps 664 mmHg 75%
    09:00 +25°C° 0.2 mm 2 mps 665 mmHg 71%
    10:00 +26°C° 0.8 mm 2 mps 665 mmHg 70%
    11:00 +26°C° 0.8 mm 2 mps 665 mmHg 68%
    12:00 +27°C° 0.8 mm 2 mps 665 mmHg 67%
    13:00 +27°C° 1.1 mm 2 mps 664 mmHg 68%
    14:00 +27°C° 1.1 mm 2 mps 664 mmHg 69%
    15:00 +27°C° 1.1 mm 2 mps 663 mmHg 69%
    16:00 +26°C° 1 mm 2 mps 663 mmHg 73%
    17:00 +25°C° 1 mm 1 mps 663 mmHg 78%
    18:00 +24°C° 1 mm 1 mps 663 mmHg 82%
    19:00 +24°C° 0.8 mm 1 mps 663 mmHg 82%
    20:00 +21°C° 0.8 mm 0 mps 663 mmHg 81%
    21:00 +20°C° 0.8 mm 0 mps 664 mmHg 81%
    22:00 +20°C° 0.7 mm 0 mps 664 mmHg 82%
    23:00 +20°C° 0.7 mm 0 mps 664 mmHg 83%

    13 December, Friday

    Time Temperature Precipitation Wind Pressure Humidity
    00:00 +22°C° 0.7 mm 1 mps 664 mmHg 84%
    01:00 +22°C° 0.3 mm 1 mps 664 mmHg 85%
    02:00 +22°C° 0.3 mm 1 mps 663 mmHg 85%
    03:00 +21°C° 0.3 mm 1 mps 663 mmHg 86%
    04:00 +21°C° 0 mm 1 mps 663 mmHg 86%
    05:00 +21°C° 0 mm 1 mps 663 mmHg 87%
    06:00 +21°C° 0 mm 1 mps 663 mmHg 87%
    07:00 +22°C° 0 mm 1 mps 664 mmHg 82%
    08:00 +24°C° 0 mm 1 mps 665 mmHg 78%
    09:00 +25°C° 0 mm 2 mps 665 mmHg 73%
    10:00 +27°C° 0.1 mm 2 mps 665 mmHg 67%
    11:00 +28°C° 0.1 mm 2 mps 665 mmHg 61%
    12:00 +29°C° 0.1 mm 2 mps 665 mmHg 55%
    13:00 +29°C° 0 mm 2 mps 665 mmHg 55%
    14:00 +29°C° 0 mm 3 mps 664 mmHg 55%
    15:00 +29°C° 0 mm 3 mps 664 mmHg 55%
    16:00 +28°C° 0.1 mm 2 mps 663 mmHg 62%
    17:00 +27°C° 0.1 mm 2 mps 663 mmHg 69%
    18:00 +26°C° 0.1 mm 2 mps 663 mmHg 76%
    19:00 +25°C° 0.1 mm 1 mps 663 mmHg 77%
    20:00 +24°C° 0.1 mm 1 mps 664 mmHg 79%
    21:00 +23°C° 0.1 mm 1 mps 664 mmHg 80%
    22:00 +23°C° 0 mm 1 mps 664 mmHg 80%
    23:00 +20°C° 0 mm 0 mps 664 mmHg 79%
    Show more